Time,TemperatureF,DewpointF,PressureIn,WindDirection,WindDirectionDegrees,WindSpeedMPH,WindSpeedGustMPH,Humidity,HourlyPrecipIn,Conditions,Clouds,dailyrainin,SoftwareType,DateUTC
2013-05-17 00:00:00,72.3,63.2,29.95,West,271,1.0,2.0,73,0.00,,---,0.00,VWS V14.01,2013-05-17 04:00:00,
2013-05-17 00:01:00,72.3,63.2,29.95,West,274,2.0,2.0,73,0.00,,---,0.00,VWS V14.01,2013-05-17 04:01:00,
2013-05-17 00:02:00,72.3,63.2,29.95,West,270,1.0,1.0,73,0.00,,---,0.00,VWS V14.01,2013-05-17 04:02:00,
2013-05-17 00:03:00,72.3,63.2,29.95,West,267,1.0,1.0,73,0.00,,---,0.00,VWS V14.01,2013-05-17 04:03:00,
2013-05-17 00:08:00,72.3,63.2,29.95,West,274,1.0,2.0,73,0.00,,---,0.00,VWS V14.01,2013-05-17 04:08:00,
2013-05-17 00:13:00,72.2,63.1,29.95,West,270,1.0,2.0,73,0.00,,---,0.00,VWS V14.01,2013-05-17 04:13:00,
2013-05-17 00:18:00,72.2,63.5,29.95,West,269,1.0,2.0,74,0.00,,---,0.00,VWS V14.01,2013-05-17 04:18:00,
2013-05-17 00:23:00,72.1,63.4,29.95,West,270,1.0,2.0,74,0.00,,---,0.00,VWS V14.01,2013-05-17 04:23:00,
2013-05-17 00:28:00,72.0,63.3,29.95,West,270,0.0,2.0,74,0.00,,---,0.00,VWS V14.01,2013-05-17 04:28:00,
2013-05-17 00:33:00,72.0,63.3,29.95,West,276,0.0,1.0,74,0.00,,---,0.00,VWS V14.01,2013-05-17 04:33:00,
2013-05-17 00:38:00,71.9,63.2,29.95,West,270,1.0,2.0,74,0.00,,---,0.00,VWS V14.01,2013-05-17 04:38:00,
2013-05-17 00:43:00,71.8,63.5,29.95,West,270,1.0,2.0,75,0.00,,---,0.00,VWS V14.01,2013-05-17 04:43:00,
2013-05-17 00:48:00,71.6,63.3,29.95,West,269,1.0,2.0,75,0.00,,---,0.00,VWS V14.01,2013-05-17 04:48:00,
2013-05-17 00:53:00,71.5,63.2,29.95,West,266,1.0,2.0,75,0.00,,---,0.00,VWS V14.01,2013-05-17 04:53:00,
2013-05-17 00:58:00,71.4,63.1,29.95,West,270,1.0,2.0,75,0.00,,---,0.00,VWS V14.01,2013-05-17 04:58:00,
2013-05-17 01:03:00,71.3,63.3,29.95,West,271,1.0,2.0,76,0.00,,---,0.00,VWS V14.01,2013-05-17 05:03:00,
2013-05-17 01:08:00,71.2,63.3,29.95,West,271,1.0,2.0,76,0.00,,---,0.00,VWS V14.01,2013-05-17 05:08:00,
2013-05-17 01:13:00,71.1,63.2,29.95,West,271,1.0,2.0,76,0.00,,---,0.00,VWS V14.01,2013-05-17 05:13:00,
2013-05-17 01:18:00,71.0,63.1,29.95,West,273,1.0,2.0,76,0.00,,---,0.00,VWS V14.01,2013-05-17 05:18:00,
2013-05-17 01:24:00,70.9,63.3,29.95,West,273,1.0,2.0,77,0.00,,---,0.00,VWS V14.01,2013-05-17 05:24:00,
2013-05-17 01:29:00,70.8,63.2,29.95,West,270,1.0,2.0,77,0.00,,---,0.00,VWS V14.01,2013-05-17 05:29:00,
2013-05-17 01:34:00,70.7,63.1,29.95,West,270,0.0,2.0,77,0.00,,---,0.00,VWS V14.01,2013-05-17 05:34:00,
2013-05-17 01:39:00,70.6,63.0,29.95,West,276,1.0,2.0,77,0.00,,---,0.00,VWS V14.01,2013-05-17 05:39:00,
2013-05-17 01:44:00,70.5,63.3,29.95,West,275,0.0,2.0,78,0.00,,---,0.00,VWS V14.01,2013-05-17 05:44:00,
2013-05-17 01:49:00,70.3,63.1,29.95,West,276,1.0,2.0,78,0.00,,---,0.00,VWS V14.01,2013-05-17 05:49:00,
2013-05-17 01:54:00,70.1,63.3,29.96,WNW,290,1.0,2.0,79,0.00,,---,0.00,VWS V14.01,2013-05-17 05:54:00,
2013-05-17 02:00:00,69.8,63.0,29.96,SE,142,0.0,2.0,79,0.00,,---,0.00,VWS V14.01,2013-05-17 06:00:00,
2013-05-17 02:05:00,69.7,63.3,29.95,SSE,160,0.0,1.0,80,0.00,,---,0.00,VWS V14.01,2013-05-17 06:05:00,
2013-05-17 02:10:00,69.4,63.0,29.96,SSE,158,1.0,1.0,80,0.00,,---,0.00,VWS V14.01,2013-05-17 06:10:00,
2013-05-17 02:15:00,69.1,63.0,29.96,SSE,157,0.0,1.0,81,0.00,,---,0.00,VWS V14.01,2013-05-17 06:15:00,
2013-05-17 02:20:00,68.9,62.8,29.95,SSE,158,0.0,1.0,81,0.00,,---,0.00,VWS V14.01,2013-05-17 06:20:00,
2013-05-17 02:25:00,68.6,62.5,29.95,SSE,158,0.0,1.0,81,0.00,,---,0.00,VWS V14.01,2013-05-17 06:25:00,
2013-05-17 02:30:00,68.5,62.8,29.95,SSE,158,0.0,1.0,82,0.00,,---,0.00,VWS V14.01,2013-05-17 06:30:00,
2013-05-17 02:35:00,68.2,62.8,29.95,SSE,158,0.0,0.0,83,0.00,,---,0.00,VWS V14.01,2013-05-17 06:35:00,
2013-05-17 02:40:00,67.9,62.5,29.95,SSE,158,0.0,0.0,83,0.00,,---,0.00,VWS V14.01,2013-05-17 06:40:00,
2013-05-17 02:45:00,67.5,62.5,29.95,SSE,158,0.0,0.0,84,0.00,,---,0.00,VWS V14.01,2013-05-17 06:45:00,
2013-05-17 02:50:00,67.3,62.6,29.95,SSE,158,0.0,0.0,85,0.00,,---,0.00,VWS V14.01,2013-05-17 06:50:00,
2013-05-17 02:55:00,67.0,62.3,29.95,SSE,158,0.0,0.0,85,0.00,,---,0.00,VWS V14.01,2013-05-17 06:55:00,
2013-05-17 03:00:00,66.7,62.0,29.95,SSE,158,0.0,0.0,85,0.00,,---,0.00,VWS V14.01,2013-05-17 07:00:00,
2013-05-17 03:06:00,66.4,62.1,29.95,SSE,158,0.0,0.0,86,0.00,,---,0.00,VWS V14.01,2013-05-17 07:06:00,
2013-05-17 03:11:00,66.2,61.9,29.95,SSE,158,0.0,0.0,86,0.00,,---,0.00,VWS V14.01,2013-05-17 07:11:00,
2013-05-17 03:16:00,66.0,62.0,29.95,SSE,158,0.0,0.0,87,0.00,,---,0.00,VWS V14.01,2013-05-17 07:16:00,
2013-05-17 03:21:00,65.8,61.8,29.95,SSE,156,0.0,0.0,87,0.00,,---,0.00,VWS V14.01,2013-05-17 07:21:00,
2013-05-17 03:26:00,65.5,61.9,29.95,SSE,157,0.0,0.0,88,0.00,,---,0.00,VWS V14.01,2013-05-17 07:26:00,
2013-05-17 03:31:00,65.3,61.7,29.95,SSE,158,0.0,0.0,88,0.00,,---,0.00,VWS V14.01,2013-05-17 07:31:00,
2013-05-17 03:36:00,65.2,61.9,29.95,SSE,158,0.0,0.0,89,0.00,,---,0.00,VWS V14.01,2013-05-17 07:36:00,
2013-05-17 03:41:00,65.0,61.7,29.96,SSE,157,0.0,0.0,89,0.00,,---,0.00,VWS V14.01,2013-05-17 07:41:00,
2013-05-17 03:46:00,64.8,61.5,29.96,SSE,158,0.0,0.0,89,0.00,,---,0.00,VWS V14.01,2013-05-17 07:46:00,
2013-05-17 03:51:00,64.5,61.2,29.96,SSE,157,0.0,0.0,89,0.00,,---,0.00,VWS V14.01,2013-05-17 07:51:00,
2013-05-17 03:56:00,64.3,61.3,29.96,SSE,157,0.0,0.0,90,0.00,,---,0.00,VWS V14.01,2013-05-17 07:56:00,
2013-05-17 04:01:00,64.2,61.2,29.96,SSE,158,0.0,0.0,90,0.00,,---,0.00,VWS V14.01,2013-05-17 08:01:00,
2013-05-17 04:06:00,64.1,61.4,29.96,SSE,156,0.0,0.0,91,0.00,,---,0.00,VWS V14.01,2013-05-17 08:06:00,
2013-05-17 04:12:00,64.1,61.4,29.96,SSE,158,0.0,0.0,91,0.00,,---,0.00,VWS V14.01,2013-05-17 08:12:00,
2013-05-17 04:17:00,63.9,61.2,29.96,SSE,156,0.0,0.0,91,0.00,,---,0.00,VWS V14.01,2013-05-17 08:17:00,
2013-05-17 04:22:00,63.8,61.4,29.97,SSE,157,0.0,0.0,92,0.00,,---,0.00,VWS V14.01,2013-05-17 08:22:00,
2013-05-17 04:27:00,63.7,61.0,29.97,SSE,157,0.0,0.0,91,0.00,,---,0.00,VWS V14.01,2013-05-17 08:27:00,
2013-05-17 04:32:00,63.5,60.8,29.97,SSE,156,0.0,0.0,91,0.00,,---,0.00,VWS V14.01,2013-05-17 08:32:00,
2013-05-17 04:37:00,63.4,61.0,29.97,SSE,157,0.0,0.0,92,0.00,,---,0.00,VWS V14.01,2013-05-17 08:37:00,
2013-05-17 04:42:00,63.3,60.9,29.97,SSE,157,0.0,0.0,92,0.00,,---,0.00,VWS V14.01,2013-05-17 08:42:00,
2013-05-17 04:47:00,63.2,60.8,29.97,SSE,157,0.0,0.0,92,0.00,,---,0.00,VWS V14.01,2013-05-17 08:47:00,
2013-05-17 04:53:00,63.1,61.0,29.98,SSE,156,0.0,0.0,93,0.00,,---,0.00,VWS V14.01,2013-05-17 08:53:00,
2013-05-17 04:58:00,63.0,60.6,29.98,SSE,156,0.0,0.0,92,0.00,,---,0.00,VWS V14.01,2013-05-17 08:58:00,
2013-05-17 05:03:00,63.0,61.0,29.98,SSE,156,0.0,0.0,93,0.00,,---,0.00,VWS V14.01,2013-05-17 09:03:00,
2013-05-17 05:08:00,63.0,61.0,29.98,SSE,156,0.0,0.0,93,0.00,,---,0.00,VWS V14.01,2013-05-17 09:08:00,
2013-05-17 05:13:00,62.9,60.8,29.99,SSE,156,0.0,0.0,93,0.00,,---,0.00,VWS V14.01,2013-05-17 09:13:00,
2013-05-17 05:18:00,62.9,61.2,29.99,SSE,157,0.0,0.0,94,0.00,,---,0.00,VWS V14.01,2013-05-17 09:18:00,
2013-05-17 05:23:00,62.9,61.2,29.99,SSE,157,0.0,0.0,94,0.00,,---,0.00,VWS V14.01,2013-05-17 09:23:00,
2013-05-17 05:28:00,62.8,60.8,29.99,SSE,157,0.0,0.0,93,0.00,,---,0.00,VWS V14.01,2013-05-17 09:28:00,
2013-05-17 05:34:00,62.8,61.0,29.99,SSE,157,0.0,0.0,94,0.00,,---,0.00,VWS V14.01,2013-05-17 09:34:00,
2013-05-17 05:39:00,62.8,61.0,30.00,SSE,157,0.0,0.0,94,0.00,,---,0.00,VWS V14.01,2013-05-17 09:39:00,
2013-05-17 05:44:00,62.8,61.0,30.00,SSE,156,0.0,0.0,94,0.00,,---,0.00,VWS V14.01,2013-05-17 09:44:00,
2013-05-17 05:49:00,63.0,61.5,30.00,SSE,156,0.0,0.0,95,0.00,,---,0.00,VWS V14.01,2013-05-17 09:49:00,
2013-05-17 05:54:00,63.2,61.8,30.00,SSE,156,0.0,0.0,95,0.00,,---,0.00,VWS V14.01,2013-05-17 09:54:00,
2013-05-17 05:59:00,63.4,62.0,30.00,SSE,156,0.0,0.0,95,0.00,,---,0.00,VWS V14.01,2013-05-17 09:59:00,
2013-05-17 06:04:00,63.5,61.8,30.01,SSE,156,0.0,0.0,94,0.00,,---,0.00,VWS V14.01,2013-05-17 10:04:00,
2013-05-17 06:09:00,63.6,61.8,30.01,SSE,156,0.0,0.0,94,0.00,,---,0.00,VWS V14.01,2013-05-17 10:09:00,
2013-05-17 06:14:00,63.8,62.0,30.01,SSE,156,0.0,0.0,94,0.00,,---,0.00,VWS V14.01,2013-05-17 10:14:00,
2013-05-17 06:19:00,63.9,62.1,30.01,SSE,158,0.0,0.0,94,0.00,,---,0.00,VWS V14.01,2013-05-17 10:19:00,
2013-05-17 06:24:00,63.9,62.1,30.01,SSE,157,0.0,0.0,94,0.00,,---,0.00,VWS V14.01,2013-05-17 10:24:00,
2013-05-17 06:29:00,63.9,61.8,30.01,SSE,158,0.0,0.0,93,0.00,,---,0.00,VWS V14.01,2013-05-17 10:29:00,
2013-05-17 06:34:00,63.9,61.8,30.01,SSE,157,0.0,0.0,93,0.00,,---,0.00,VWS V14.01,2013-05-17 10:34:00,
2013-05-17 06:39:00,63.9,61.8,30.02,SSE,156,0.0,0.0,93,0.00,,---,0.00,VWS V14.01,2013-05-17 10:39:00,
2013-05-17 06:44:00,64.0,62.2,30.01,SSE,158,0.0,0.0,94,0.00,,---,0.00,VWS V14.01,2013-05-17 10:44:00,
2013-05-17 06:49:00,64.1,62.0,30.02,SSE,156,0.0,0.0,93,0.00,,---,0.00,VWS V14.01,2013-05-17 10:49:00,
2013-05-17 06:55:00,64.2,62.1,30.02,SSE,157,0.0,0.0,93,0.00,,---,0.00,VWS V14.01,2013-05-17 10:55:00,
2013-05-17 07:00:00,64.2,62.1,30.02,SSE,157,0.0,0.0,93,0.00,,---,0.00,VWS V14.01,2013-05-17 11:00:00,
2013-05-17 07:05:00,64.4,62.6,30.02,SSE,156,0.0,0.0,94,0.00,,---,0.00,VWS V14.01,2013-05-17 11:05:00,
2013-05-17 07:10:00,64.5,62.4,30.02,SSE,158,0.0,0.0,93,0.00,,---,0.00,VWS V14.01,2013-05-17 11:10:00,
2013-05-17 07:15:00,64.5,62.4,30.02,SSE,157,0.0,0.0,93,0.00,,---,0.00,VWS V14.01,2013-05-17 11:15:00,
2013-05-17 07:20:00,64.6,62.5,30.03,SSE,156,0.0,0.0,93,0.00,,---,0.00,VWS V14.01,2013-05-17 11:20:00,
2013-05-17 07:25:00,64.7,62.6,30.03,SSE,158,0.0,0.0,93,0.00,,---,0.00,VWS V14.01,2013-05-17 11:25:00,
2013-05-17 07:30:00,64.8,63.0,30.03,SSE,156,0.0,0.0,94,0.00,,---,0.00,VWS V14.01,2013-05-17 11:30:00,
2013-05-17 07:36:00,64.9,62.8,30.03,SSE,156,0.0,0.0,93,0.00,,---,0.00,VWS V14.01,2013-05-17 11:36:00,
2013-05-17 07:41:00,65.1,63.0,30.03,SSE,158,0.0,0.0,93,0.00,,---,0.00,VWS V14.01,2013-05-17 11:41:00,
2013-05-17 07:46:00,65.4,63.3,30.03,SSE,158,0.0,0.0,93,0.00,,---,0.00,VWS V14.01,2013-05-17 11:46:00,
2013-05-17 07:51:00,65.6,63.5,30.03,SSE,158,0.0,0.0,93,0.00,,---,0.00,VWS V14.01,2013-05-17 11:51:00,
2013-05-17 07:56:00,66.0,63.9,30.03,SSE,158,0.0,0.0,93,0.00,,---,0.00,VWS V14.01,2013-05-17 11:56:00,
2013-05-17 08:01:00,66.4,64.3,30.04,SSE,158,0.0,0.0,93,0.00,,---,0.00,VWS V14.01,2013-05-17 12:01:00,
2013-05-17 08:06:00,66.8,64.4,30.04,SSE,158,0.0,0.0,92,0.00,,---,0.00,VWS V14.01,2013-05-17 12:06:00,
2013-05-17 08:11:00,67.2,64.8,30.04,SSE,158,0.0,0.0,92,0.00,,---,0.00,VWS V14.01,2013-05-17 12:11:00,
2013-05-17 08:16:00,67.7,65.0,30.04,SSE,158,0.0,0.0,91,0.00,,---,0.00,VWS V14.01,2013-05-17 12:16:00,
2013-05-17 08:21:00,68.2,65.2,30.04,SSE,158,0.0,0.0,90,0.00,,---,0.00,VWS V14.01,2013-05-17 12:21:00,
2013-05-17 08:26:00,68.7,64.7,30.04,SSE,157,0.0,0.0,87,0.00,,---,0.00,VWS V14.01,2013-05-17 12:26:00,
2013-05-17 08:32:00,69.3,64.3,30.04,NE,50,0.0,0.0,84,0.00,,---,0.00,VWS V14.01,2013-05-17 12:32:00,
2013-05-17 08:37:00,69.8,64.4,30.04,NE,50,0.0,1.0,83,0.00,,---,0.00,VWS V14.01,2013-05-17 12:37:00,
2013-05-17 08:42:00,70.3,64.9,30.04,NE,51,0.0,1.0,83,0.00,,---,0.00,VWS V14.01,2013-05-17 12:42:00,
2013-05-17 08:47:00,70.8,65.0,30.04,NE,50,0.0,1.0,82,0.00,,---,0.00,VWS V14.01,2013-05-17 12:47:00,
2013-05-17 08:52:00,71.2,65.1,30.04,NE,50,0.0,1.0,81,0.00,,---,0.00,VWS V14.01,2013-05-17 12:52:00,
2013-05-17 08:57:00,71.6,65.1,30.04,NE,51,0.0,1.0,80,0.00,,---,0.00,VWS V14.01,2013-05-17 12:57:00,
2013-05-17 09:02:00,72.0,65.5,30.05,NE,51,0.0,0.0,80,0.00,,---,0.00,VWS V14.01,2013-05-17 13:02:00,
2013-05-17 09:07:00,72.3,65.4,30.05,NE,51,0.0,1.0,79,0.00,,---,0.00,VWS V14.01,2013-05-17 13:07:00,
2013-05-17 09:12:00,72.6,65.7,30.05,NNE,15,0.0,1.0,79,0.00,,---,0.00,VWS V14.01,2013-05-17 13:12:00,
2013-05-17 09:17:00,73.0,65.4,30.05,NNE,15,0.0,1.0,77,0.00,,---,0.00,VWS V14.01,2013-05-17 13:17:00,
2013-05-17 09:22:00,73.7,64.5,30.05,NNE,15,0.0,2.0,73,0.00,,---,0.00,VWS V14.01,2013-05-17 13:22:00,
2013-05-17 09:28:00,74.4,64.8,30.05,NNE,15,0.0,2.0,72,0.00,,---,0.00,VWS V14.01,2013-05-17 13:28:00,
2013-05-17 09:33:00,75.1,63.0,30.05,NE,34,1.0,2.0,66,0.00,,---,0.00,VWS V14.01,2013-05-17 13:33:00,
2013-05-17 09:38:00,75.5,63.8,30.05,NE,34,1.0,2.0,67,0.00,,---,0.00,VWS V14.01,2013-05-17 13:38:00,
2013-05-17 09:43:00,75.7,62.2,30.05,NE,53,0.0,4.0,63,0.00,,---,0.00,VWS V14.01,2013-05-17 13:43:00,
2013-05-17 09:48:00,76.1,63.5,30.05,North,358,1.0,4.0,65,0.00,,---,0.00,VWS V14.01,2013-05-17 13:48:00,
2013-05-17 09:53:00,76.4,62.9,30.05,NE,52,1.0,4.0,63,0.00,,---,0.00,VWS V14.01,2013-05-17 13:53:00,
2013-05-17 09:58:00,76.7,62.7,30.05,ENE,60,2.0,4.0,62,0.00,,---,0.00,VWS V14.01,2013-05-17 13:58:00,
2013-05-17 10:03:00,76.7,63.2,30.05,NE,53,0.0,1.0,63,0.00,,---,0.00,VWS V14.01,2013-05-17 14:03:00,
2013-05-17 10:08:00,77.2,63.2,30.05,NE,41,3.0,3.0,62,0.00,,---,0.00,VWS V14.01,2013-05-17 14:08:00,
2013-05-17 10:13:00,77.2,62.7,30.05,SSE,165,0.0,4.0,61,0.00,,---,0.00,VWS V14.01,2013-05-17 14:13:00,
2013-05-17 10:19:00,77.5,63.0,30.05,NE,46,2.0,4.0,61,0.00,,---,0.00,VWS V14.01,2013-05-17 14:19:00,
2013-05-17 10:24:00,77.8,62.8,30.05,NNE,19,2.0,4.0,60,0.00,,---,0.00,VWS V14.01,2013-05-17 14:24:00,
2013-05-17 10:29:00,78.1,63.1,30.05,North,11,0.0,4.0,60,0.00,,---,0.00,VWS V14.01,2013-05-17 14:29:00,
2013-05-17 10:34:00,78.6,63.6,30.05,ESE,112,1.0,2.0,60,0.00,,---,0.00,VWS V14.01,2013-05-17 14:34:00,
2013-05-17 10:39:00,79.0,63.0,30.05,NE,39,3.0,4.0,58,0.00,,---,0.00,VWS V14.01,2013-05-17 14:39:00,
2013-05-17 10:44:00,79.5,63.0,30.05,NNE,15,3.0,6.0,57,0.00,,---,0.00,VWS V14.01,2013-05-17 14:44:00,
2013-05-17 10:49:00,80.2,63.6,30.05,ENE,77,1.0,6.0,57,0.00,,---,0.00,VWS V14.01,2013-05-17 14:49:00,
2013-05-17 10:54:00,80.4,62.8,30.05,East,101,1.0,6.0,55,0.00,,---,0.00,VWS V14.01,2013-05-17 14:54:00,
2013-05-17 10:59:00,81.0,63.8,30.05,East,79,1.0,6.0,56,0.00,,---,0.00,VWS V14.01,2013-05-17 14:59:00,
2013-05-17 11:04:00,81.4,64.2,30.05,East,82,0.0,1.0,56,0.00,,---,0.00,VWS V14.01,2013-05-17 15:04:00,
2013-05-17 11:09:00,82.2,64.4,30.05,SE,128,1.0,1.0,55,0.00,,---,0.00,VWS V14.01,2013-05-17 15:09:00,
2013-05-17 11:14:00,82.5,64.2,30.05,SSW,210,1.0,2.0,54,0.00,,---,0.00,VWS V14.01,2013-05-17 15:14:00,
2013-05-17 11:19:00,82.7,64.4,30.05,ESE,110,0.0,2.0,54,0.00,,---,0.00,VWS V14.01,2013-05-17 15:19:00,
2013-05-17 11:24:00,83.0,64.1,30.05,NE,41,0.0,5.0,53,0.00,,---,0.00,VWS V14.01,2013-05-17 15:24:00,
2013-05-17 11:30:00,84.8,64.7,30.05,NE,56,0.0,5.0,51,0.00,,---,0.00,VWS V14.01,2013-05-17 15:30:00,
2013-05-17 11:35:00,85.0,64.9,30.05,SE,139,0.0,2.0,51,0.00,,---,0.00,VWS V14.01,2013-05-17 15:35:00,
2013-05-17 11:40:00,85.0,64.9,30.05,NE,50,2.0,4.0,51,0.00,,---,0.00,VWS V14.01,2013-05-17 15:40:00,
2013-05-17 11:45:00,84.9,64.2,30.05,SE,131,1.0,5.0,50,0.00,,---,0.00,VWS V14.01,2013-05-17 15:45:00,
2013-05-17 11:50:00,84.6,64.5,30.05,East,91,1.0,5.0,51,0.00,,---,0.00,VWS V14.01,2013-05-17 15:50:00,
2013-05-17 11:55:00,84.6,64.5,30.05,East,87,1.0,5.0,51,0.00,,---,0.00,VWS V14.01,2013-05-17 15:55:00,
2013-05-17 12:00:00,84.4,62.6,30.05,SE,130,0.0,5.0,48,0.00,,---,0.00,VWS V14.01,2013-05-17 16:00:00,
2013-05-17 12:05:00,85.0,63.7,30.05,ENE,72,0.0,3.0,49,0.00,,---,0.00,VWS V14.01,2013-05-17 16:05:00,
2013-05-17 12:10:00,85.4,62.9,30.05,SSE,148,1.0,3.0,47,0.00,,---,0.00,VWS V14.01,2013-05-17 16:10:00,
2013-05-17 12:15:00,85.5,63.6,30.05,NE,39,3.0,6.0,48,0.00,,---,0.00,VWS V14.01,2013-05-17 16:15:00,
2013-05-17 12:21:00,85.5,63.0,30.05,NE,51,3.0,6.0,47,0.00,,---,0.00,VWS V14.01,2013-05-17 16:21:00,
2013-05-17 12:26:00,85.7,62.6,30.05,NE,51,0.0,6.0,46,0.00,,---,0.00,VWS V14.01,2013-05-17 16:26:00,
2013-05-17 12:31:00,86.5,62.7,30.05,NNE,30,1.0,6.0,45,0.00,,---,0.00,VWS V14.01,2013-05-17 16:31:00,
2013-05-17 12:36:00,87.5,62.9,30.05,ENE,63,1.0,4.0,44,0.00,,---,0.00,VWS V14.01,2013-05-17 16:36:00,
2013-05-17 12:41:00,87.7,62.5,30.05,NNE,27,1.0,4.0,43,0.00,,---,0.00,VWS V14.01,2013-05-17 16:41:00,
2013-05-17 12:46:00,87.3,64.0,30.05,West,262,1.0,4.0,46,0.00,,---,0.00,VWS V14.01,2013-05-17 16:46:00,
2013-05-17 12:51:00,89.2,64.5,30.05,NW,318,0.0,4.0,44,0.00,,---,0.00,VWS V14.01,2013-05-17 16:51:00,
2013-05-17 12:56:00,88.7,63.3,30.05,SSW,198,0.0,4.0,43,0.00,,---,0.00,VWS V14.01,2013-05-17 16:56:00,
2013-05-17 13:01:00,89.3,63.9,30.04,South,188,0.0,0.0,43,0.00,,---,0.00,VWS V14.01,2013-05-17 17:01:00,
2013-05-17 13:06:00,88.7,64.0,30.04,ESE,123,1.0,2.0,44,0.00,,---,0.00,VWS V14.01,2013-05-17 17:06:00,
2013-05-17 13:11:00,88.3,63.0,30.04,SE,131,0.0,2.0,43,0.00,,---,0.00,VWS V14.01,2013-05-17 17:11:00,
2013-05-17 13:17:00,88.8,63.4,30.04,SE,136,0.0,2.0,43,0.00,,---,0.00,VWS V14.01,2013-05-17 17:17:00,
2013-05-17 13:22:00,89.9,63.8,30.04,West,278,2.0,2.0,42,0.00,,---,0.00,VWS V14.01,2013-05-17 17:22:00,
2013-05-17 13:27:00,89.8,63.0,30.04,SW,229,1.0,2.0,41,0.00,,---,0.00,VWS V14.01,2013-05-17 17:27:00,
2013-05-17 13:32:00,92.9,63.6,30.04,NNE,15,1.0,2.0,38,0.00,,---,0.00,VWS V14.01,2013-05-17 17:32:00,
2013-05-17 13:37:00,92.5,63.2,30.03,NE,49,1.0,2.0,38,0.00,,---,0.00,VWS V14.01,2013-05-17 17:37:00,
2013-05-17 13:42:00,92.0,64.2,30.03,ENE,58,2.0,2.0,40,0.00,,---,0.00,VWS V14.01,2013-05-17 17:42:00,
2013-05-17 13:47:00,91.1,62.7,30.03,ESE,115,1.0,2.0,39,0.00,,---,0.00,VWS V14.01,2013-05-17 17:47:00,
2013-05-17 13:52:00,90.6,63.7,30.03,SSE,165,1.0,3.0,41,0.00,,---,0.00,VWS V14.01,2013-05-17 17:52:00,
2013-05-17 13:57:00,90.2,62.6,30.03,NE,39,2.0,5.0,40,0.00,,---,0.00,VWS V14.01,2013-05-17 17:57:00,
2013-05-17 14:03:00,90.3,63.4,30.03,West,267,1.0,3.0,41,0.00,,---,0.00,VWS V14.01,2013-05-17 18:03:00,
2013-05-17 14:08:00,90.9,64.7,30.03,ESE,115,1.0,3.0,42,0.00,,---,0.00,VWS V14.01,2013-05-17 18:08:00,
2013-05-17 14:13:00,89.8,64.3,30.03,SE,132,0.0,3.0,43,0.00,,---,0.00,VWS V14.01,2013-05-17 18:13:00,
2013-05-17 14:18:00,90.3,64.1,30.03,NNW,342,1.0,3.0,42,0.00,,---,0.00,VWS V14.01,2013-05-17 18:18:00,
2013-05-17 14:23:00,90.6,64.4,30.03,NE,48,0.0,4.0,42,0.00,,---,0.00,VWS V14.01,2013-05-17 18:23:00,
2013-05-17 14:28:00,90.8,63.2,30.03,SE,136,2.0,4.0,40,0.00,,---,0.00,VWS V14.01,2013-05-17 18:28:00,
2013-05-17 14:33:00,89.7,62.9,30.03,WSW,257,0.0,4.0,41,0.00,,---,0.00,VWS V14.01,2013-05-17 18:33:00,
2013-05-17 14:38:00,90.5,63.6,30.02,WNW,287,2.0,4.0,41,0.00,,---,0.00,VWS V14.01,2013-05-17 18:38:00,
2013-05-17 14:43:00,91.8,64.8,30.02,NNE,20,1.0,4.0,41,0.00,,---,0.00,VWS V14.01,2013-05-17 18:43:00,
2013-05-17 14:48:00,92.0,63.5,30.02,SE,135,1.0,4.0,39,0.00,,---,0.00,VWS V14.01,2013-05-17 18:48:00,
2013-05-17 14:53:00,91.6,63.9,30.02,SW,232,1.0,4.0,40,0.00,,---,0.00,VWS V14.01,2013-05-17 18:53:00,
2013-05-17 14:58:00,90.3,62.7,30.02,SSE,152,1.0,4.0,40,0.00,,---,0.00,VWS V14.01,2013-05-17 18:58:00,
2013-05-17 15:03:00,90.9,64.0,30.02,NW,325,1.0,1.0,41,0.00,,---,0.00,VWS V14.01,2013-05-17 19:03:00,
2013-05-17 15:08:00,91.1,62.7,30.02,NE,50,0.0,3.0,39,0.00,,---,0.00,VWS V14.01,2013-05-17 19:08:00,
2013-05-17 15:13:00,90.8,62.5,30.02,SW,226,0.0,3.0,39,0.00,,---,0.00,VWS V14.01,2013-05-17 19:13:00,
2013-05-17 15:18:00,91.0,63.3,30.02,West,262,2.0,3.0,40,0.00,,---,0.00,VWS V14.01,2013-05-17 19:18:00,
2013-05-17 15:23:00,90.8,63.2,30.02,SSE,163,1.0,3.0,40,0.00,,---,0.00,VWS V14.01,2013-05-17 19:23:00,
2013-05-17 15:28:00,90.6,62.3,30.02,ENE,76,1.0,3.0,39,0.00,,---,0.00,VWS V14.01,2013-05-17 19:28:00,
2013-05-17 15:34:00,90.4,62.1,30.02,NNE,13,1.0,2.0,39,0.00,,---,0.00,VWS V14.01,2013-05-17 19:34:00,
2013-05-17 15:39:00,91.4,64.4,30.01,SSW,201,1.0,2.0,41,0.00,,---,0.00,VWS V14.01,2013-05-17 19:39:00,
2013-05-17 15:44:00,91.0,64.7,30.01,East,92,1.0,2.0,42,0.00,,---,0.00,VWS V14.01,2013-05-17 19:44:00,
2013-05-17 15:49:00,90.1,63.9,30.01,SE,130,1.0,2.0,42,0.00,,---,0.00,VWS V14.01,2013-05-17 19:49:00,
2013-05-17 15:54:00,89.9,63.8,30.01,West,277,2.0,2.0,42,0.00,,---,0.00,VWS V14.01,2013-05-17 19:54:00,
2013-05-17 15:59:00,90.3,64.8,30.01,North,349,0.0,2.0,43,0.00,,---,0.00,VWS V14.01,2013-05-17 19:59:00,
2013-05-17 16:04:00,90.8,65.2,30.01,SSE,162,2.0,2.0,43,0.00,,---,0.00,VWS V14.01,2013-05-17 20:04:00,
2013-05-17 16:09:00,90.1,63.9,30.01,SE,138,1.0,2.0,42,0.00,,---,0.00,VWS V14.01,2013-05-17 20:09:00,
2013-05-17 16:14:00,89.6,63.5,30.00,SW,226,0.0,2.0,42,0.00,,---,0.00,VWS V14.01,2013-05-17 20:14:00,
2013-05-17 16:19:00,89.3,62.5,30.00,ESE,120,1.0,2.0,41,0.00,,---,0.00,VWS V14.01,2013-05-17 20:19:00,
2013-05-17 16:24:00,88.8,63.4,30.00,SE,141,0.0,2.0,43,0.00,,---,0.00,VWS V14.01,2013-05-17 20:24:00,
2013-05-17 16:29:00,88.3,63.0,30.00,SE,135,0.0,2.0,43,0.00,,---,0.00,VWS V14.01,2013-05-17 20:29:00,
2013-05-17 16:35:00,87.7,63.1,30.00,SE,124,1.0,3.0,44,0.00,,---,0.00,VWS V14.01,2013-05-17 20:35:00,
2013-05-17 16:40:00,87.4,64.1,30.00,ESE,120,0.0,3.0,46,0.00,,---,0.00,VWS V14.01,2013-05-17 20:40:00,
2013-05-17 16:45:00,87.5,62.9,30.00,West,276,1.0,3.0,44,0.00,,---,0.00,VWS V14.01,2013-05-17 20:45:00,
2013-05-17 16:50:00,87.4,62.8,30.00,SSW,207,1.0,3.0,44,0.00,,---,0.00,VWS V14.01,2013-05-17 20:50:00,
2013-05-17 16:55:00,87.2,63.3,30.00,SSW,203,0.0,3.0,45,0.00,,---,0.00,VWS V14.01,2013-05-17 20:55:00,
2013-05-17 17:00:00,87.3,63.4,30.00,SW,224,0.0,3.0,45,0.00,,---,0.00,VWS V14.01,2013-05-17 21:00:00,
2013-05-17 17:05:00,87.2,62.7,30.00,SW,222,1.0,1.0,44,0.00,,---,0.00,VWS V14.01,2013-05-17 21:05:00,
2013-05-17 17:10:00,86.8,62.9,30.00,SE,128,0.0,2.0,45,0.00,,---,0.00,VWS V14.01,2013-05-17 21:10:00,
2013-05-17 17:15:00,86.3,61.2,30.00,SE,136,1.0,2.0,43,0.00,,---,0.00,VWS V14.01,2013-05-17 21:15:00,
2013-05-17 17:20:00,85.8,62.0,30.00,SE,135,0.0,2.0,45,0.00,,---,0.00,VWS V14.01,2013-05-17 21:20:00,
2013-05-17 17:25:00,85.7,62.6,30.00,SSE,165,0.0,2.0,46,0.00,,---,0.00,VWS V14.01,2013-05-17 21:25:00,
2013-05-17 17:30:00,85.6,61.8,30.00,SSE,165,0.0,2.0,45,0.00,,---,0.00,VWS V14.01,2013-05-17 21:30:00,
2013-05-17 17:36:00,85.7,63.8,30.00,SSE,165,0.0,0.0,48,0.00,,---,0.00,VWS V14.01,2013-05-17 21:36:00,
2013-05-17 17:41:00,85.7,63.2,30.00,SSE,165,0.0,0.0,47,0.00,,---,0.00,VWS V14.01,2013-05-17 21:41:00,
2013-05-17 17:46:00,85.7,63.2,29.99,SSE,165,0.0,0.0,47,0.00,,---,0.00,VWS V14.01,2013-05-17 21:46:00,
2013-05-17 17:51:00,85.5,63.6,30.00,SSE,165,0.0,0.0,48,0.00,,---,0.00,VWS V14.01,2013-05-17 21:51:00,
2013-05-17 17:56:00,85.0,63.1,30.00,SW,218,0.0,1.0,48,0.00,,---,0.00,VWS V14.01,2013-05-17 21:56:00,
2013-05-17 18:01:00,84.8,63.5,30.00,SW,218,0.0,0.0,49,0.00,,---,0.00,VWS V14.01,2013-05-17 22:01:00,
2013-05-17 18:06:00,84.8,64.1,30.00,SW,219,0.0,1.0,50,0.00,,---,0.00,VWS V14.01,2013-05-17 22:06:00,
2013-05-17 18:11:00,84.7,62.9,30.00,South,174,0.0,1.0,48,0.00,,---,0.00,VWS V14.01,2013-05-17 22:11:00,
2013-05-17 18:16:00,84.6,63.3,30.00,South,175,0.0,1.0,49,0.00,,---,0.00,VWS V14.01,2013-05-17 22:16:00,
2013-05-17 18:21:00,84.5,63.3,30.00,South,176,0.0,1.0,49,0.00,,---,0.00,VWS V14.01,2013-05-17 22:21:00,
2013-05-17 18:26:00,84.4,63.2,29.99,South,176,0.0,1.0,49,0.00,,---,0.00,VWS V14.01,2013-05-17 22:26:00,
2013-05-17 18:32:00,84.3,63.7,29.99,South,176,0.0,0.0,50,0.00,,---,0.00,VWS V14.01,2013-05-17 22:32:00,
2013-05-17 18:37:00,84.1,63.5,30.00,South,176,0.0,0.0,50,0.00,,---,0.00,VWS V14.01,2013-05-17 22:37:00,
2013-05-17 18:42:00,83.9,63.3,30.00,South,176,0.0,1.0,50,0.00,,---,0.00,VWS V14.01,2013-05-17 22:42:00,
2013-05-17 18:47:00,83.7,63.1,30.00,South,176,0.0,1.0,50,0.00,,---,0.00,VWS V14.01,2013-05-17 22:47:00,
2013-05-17 18:52:00,83.6,63.6,30.00,South,176,0.0,1.0,51,0.00,,---,0.00,VWS V14.01,2013-05-17 22:52:00,
2013-05-17 18:57:00,83.4,63.4,30.00,South,176,0.0,1.0,51,0.00,,---,0.00,VWS V14.01,2013-05-17 22:57:00,
2013-05-17 19:02:00,83.1,63.7,30.00,South,176,0.0,0.0,52,0.00,,---,0.00,VWS V14.01,2013-05-17 23:02:00,
2013-05-17 19:08:00,82.9,63.5,30.00,South,176,0.0,0.0,52,0.00,,---,0.00,VWS V14.01,2013-05-17 23:08:00,
2013-05-17 19:13:00,82.7,63.8,30.00,South,176,0.0,0.0,53,0.00,,---,0.00,VWS V14.01,2013-05-17 23:13:00,
2013-05-17 19:18:00,82.4,63.6,30.00,South,176,0.0,0.0,53,0.00,,---,0.00,VWS V14.01,2013-05-17 23:18:00,
2013-05-17 19:23:00,82.1,63.8,30.00,South,176,0.0,0.0,54,0.00,,---,0.00,VWS V14.01,2013-05-17 23:23:00,
2013-05-17 19:28:00,81.7,64.5,30.00,South,176,0.0,0.0,56,0.00,,---,0.00,VWS V14.01,2013-05-17 23:28:00,
2013-05-17 19:33:00,81.4,64.2,30.00,South,176,0.0,0.0,56,0.00,,---,0.00,VWS V14.01,2013-05-17 23:33:00,
2013-05-17 19:38:00,81.2,64.0,30.00,South,176,0.0,0.0,56,0.00,,---,0.00,VWS V14.01,2013-05-17 23:38:00,
2013-05-17 19:43:00,81.0,63.8,30.00,South,176,0.0,0.0,56,0.00,,---,0.00,VWS V14.01,2013-05-17 23:43:00,
2013-05-17 19:48:00,80.7,64.1,30.00,South,176,0.0,0.0,57,0.00,,---,0.00,VWS V14.01,2013-05-17 23:48:00,
2013-05-17 19:53:00,80.4,64.8,30.00,South,176,0.0,0.0,59,0.00,,---,0.00,VWS V14.01,2013-05-17 23:53:00,
2013-05-17 19:58:00,79.9,64.3,30.01,South,176,0.0,0.0,59,0.00,,---,0.00,VWS V14.01,2013-05-17 23:58:00,
2013-05-17 20:03:00,79.6,64.5,30.01,South,176,0.0,0.0,60,0.00,,---,0.00,VWS V14.01,2013-05-18 00:03:00,
2013-05-17 20:09:00,79.3,64.7,30.01,South,176,0.0,0.0,61,0.00,,---,0.00,VWS V14.01,2013-05-18 00:09:00,
2013-05-17 20:14:00,78.9,63.8,30.01,South,176,0.0,0.0,60,0.00,,---,0.00,VWS V14.01,2013-05-18 00:14:00,
2013-05-17 20:19:00,78.5,64.0,30.01,South,176,0.0,0.0,61,0.00,,---,0.00,VWS V14.01,2013-05-18 00:19:00,
2013-05-17 20:24:00,78.2,64.1,30.01,South,176,0.0,0.0,62,0.00,,---,0.00,VWS V14.01,2013-05-18 00:24:00,
2013-05-17 20:29:00,77.7,64.1,30.01,South,176,0.0,0.0,63,0.00,,---,0.00,VWS V14.01,2013-05-18 00:29:00,
2013-05-17 20:34:00,77.3,63.7,30.01,South,176,0.0,0.0,63,0.00,,---,0.00,VWS V14.01,2013-05-18 00:34:00,
2013-05-17 20:39:00,76.9,63.8,30.01,South,176,0.0,0.0,64,0.00,,---,0.00,VWS V14.01,2013-05-18 00:39:00,
2013-05-17 20:44:00,76.6,64.4,30.01,South,176,0.0,0.0,66,0.00,,---,0.00,VWS V14.01,2013-05-18 00:44:00,
2013-05-17 20:49:00,76.4,64.2,30.01,South,176,0.0,0.0,66,0.00,,---,0.00,VWS V14.01,2013-05-18 00:49:00,
2013-05-17 20:54:00,76.0,63.8,30.01,South,176,0.0,0.0,66,0.00,,---,0.00,VWS V14.01,2013-05-18 00:54:00,
2013-05-17 20:59:00,75.7,64.0,30.02,South,176,0.0,0.0,67,0.00,,---,0.00,VWS V14.01,2013-05-18 00:59:00,
2013-05-17 21:04:00,75.4,64.1,30.02,South,176,0.0,0.0,68,0.00,,---,0.00,VWS V14.01,2013-05-18 01:04:00,
2013-05-17 21:09:00,75.2,64.3,30.02,South,176,0.0,0.0,69,0.00,,---,0.00,VWS V14.01,2013-05-18 01:09:00,
2013-05-17 21:14:00,74.9,64.1,30.02,South,176,0.0,0.0,69,0.00,,---,0.00,VWS V14.01,2013-05-18 01:14:00,
2013-05-17 21:19:00,74.7,64.3,30.02,South,176,0.0,0.0,70,0.00,,---,0.00,VWS V14.01,2013-05-18 01:19:00,
2013-05-17 21:25:00,74.5,64.1,30.02,South,176,0.0,0.0,70,0.00,,---,0.00,VWS V14.01,2013-05-18 01:25:00,
2013-05-17 21:30:00,74.3,63.9,30.03,South,176,0.0,0.0,70,0.00,,---,0.00,VWS V14.01,2013-05-18 01:30:00,
2013-05-17 21:35:00,74.1,63.7,30.03,South,176,0.0,0.0,70,0.00,,---,0.00,VWS V14.01,2013-05-18 01:35:00,
2013-05-17 21:40:00,73.9,63.5,30.03,South,176,0.0,0.0,70,0.00,,---,0.00,VWS V14.01,2013-05-18 01:40:00,
2013-05-17 21:45:00,73.8,63.8,30.03,South,176,0.0,0.0,71,0.00,,---,0.00,VWS V14.01,2013-05-18 01:45:00,
2013-05-17 21:50:00,73.7,63.3,30.03,South,176,0.0,0.0,70,0.00,,---,0.00,VWS V14.01,2013-05-18 01:50:00,
2013-05-17 21:55:00,73.6,63.6,30.03,South,176,0.0,0.0,71,0.00,,---,0.00,VWS V14.01,2013-05-18 01:55:00,
2013-05-17 22:00:00,73.7,64.1,30.03,South,176,0.0,0.0,72,0.00,,---,0.00,VWS V14.01,2013-05-18 02:00:00,
2013-05-17 22:06:00,73.6,64.8,30.03,South,176,0.0,0.0,74,0.00,,---,0.00,VWS V14.01,2013-05-18 02:06:00,
2013-05-17 22:11:00,73.4,64.2,30.03,South,176,0.0,0.0,73,0.00,,---,0.00,VWS V14.01,2013-05-18 02:11:00,
2013-05-17 22:16:00,73.3,63.7,30.03,South,176,0.0,0.0,72,0.00,,---,0.00,VWS V14.01,2013-05-18 02:16:00,
2013-05-17 22:21:00,73.2,64.4,30.05,WNW,285,1.0,2.0,74,0.00,,---,0.00,VWS V14.01,2013-05-18 02:21:00,
2013-05-17 22:26:00,73.1,64.7,30.05,West,278,1.0,2.0,75,0.00,,---,0.00,VWS V14.01,2013-05-18 02:26:00,
2013-05-17 22:31:00,73.5,64.3,30.05,West,281,0.0,2.0,73,0.00,,---,0.00,VWS V14.01,2013-05-18 02:31:00,
2013-05-17 22:36:00,74.0,64.4,30.05,West,271,2.0,2.0,72,0.00,,---,0.00,VWS V14.01,2013-05-18 02:36:00,
2013-05-17 22:41:00,74.4,66.0,30.05,NE,36,1.0,2.0,75,0.00,,---,0.00,VWS V14.01,2013-05-18 02:41:00,
2013-05-17 22:46:00,73.4,66.1,30.04,ENE,58,2.0,2.0,78,0.00,,---,0.00,VWS V14.01,2013-05-18 02:46:00,
2013-05-17 22:51:00,73.0,65.4,30.04,ENE,58,2.0,4.0,77,0.00,,---,0.00,VWS V14.01,2013-05-18 02:51:00,
2013-05-17 22:56:00,73.3,65.3,30.04,ENE,65,0.0,4.0,76,0.00,,---,0.00,VWS V14.01,2013-05-18 02:56:00,
2013-05-17 23:01:00,73.7,65.3,30.04,SE,132,1.0,1.0,75,0.00,,---,0.00,VWS V14.01,2013-05-18 03:01:00,
2013-05-17 23:07:00,73.9,65.5,30.04,ESE,108,0.0,2.0,75,0.00,,---,0.00,VWS V14.01,2013-05-18 03:07:00,
2013-05-17 23:12:00,73.9,65.5,30.04,SE,131,1.0,2.0,75,0.00,,---,0.00,VWS V14.01,2013-05-18 03:12:00,
2013-05-17 23:17:00,73.9,65.5,30.04,ESE,118,0.0,2.0,75,0.00,,---,0.00,VWS V14.01,2013-05-18 03:17:00,
2013-05-17 23:22:00,73.8,65.4,30.04,East,89,1.0,2.0,75,0.00,,---,0.00,VWS V14.01,2013-05-18 03:22:00,
2013-05-17 23:27:00,73.8,65.4,30.04,East,92,0.0,2.0,75,0.00,,---,0.00,VWS V14.01,2013-05-18 03:27:00,
2013-05-17 23:32:00,73.6,65.6,30.04,East,92,0.0,0.0,76,0.00,,---,0.00,VWS V14.01,2013-05-18 03:32:00,
2013-05-17 23:37:00,73.4,65.4,30.04,East,92,0.0,0.0,76,0.00,,---,0.00,VWS V14.01,2013-05-18 03:37:00,
2013-05-17 23:42:00,73.2,65.2,30.04,East,92,0.0,0.0,76,0.00,,---,0.00,VWS V14.01,2013-05-18 03:42:00,
2013-05-17 23:47:00,73.0,65.4,30.04,East,92,0.0,0.0,77,0.00,,---,0.00,VWS V14.01,2013-05-18 03:47:00,
2013-05-17 23:53:00,72.8,65.2,30.04,East,91,0.0,0.0,77,0.00,,---,0.00,VWS V14.01,2013-05-18 03:53:00,
2013-05-17 23:58:00,72.7,65.1,30.04,East,94,0.0,1.0,77,0.00,,---,0.00,VWS V14.01,2013-05-18 03:58:00,